Time,TemperatureF,DewpointF,PressureIn,WindDirection,WindDirectionDegrees,WindSpeedMPH,WindSpeedGustMPH,Humidity,HourlyPrecipIn,Conditions,Clouds,dailyrainin,SoftwareType,DateUTC
2013-03-07 00:01:00,23.0,19.0,27.42,North,5,5.0,10.0,85,0.00,,,0.00,,2013-03-07 07:01:00,
2013-03-07 00:11:00,23.0,19.0,27.42,North,5,5.0,10.0,85,0.00,,,0.00,,2013-03-07 07:11:00,
2013-03-07 00:21:00,23.0,19.0,27.42,NE,46,4.0,10.0,86,0.00,,,0.00,,2013-03-07 07:21:00,
2013-03-07 00:32:00,23.0,19.0,27.42,NE,46,3.0,6.0,86,0.00,,,0.00,,2013-03-07 07:32:00,
2013-03-07 00:42:00,23.0,19.0,27.42,NE,46,3.0,6.0,86,0.00,,,0.00,,2013-03-07 07:42:00,
2013-03-07 00:53:00,23.0,20.0,27.42,NNE,28,4.0,7.0,87,0.00,,,0.00,,2013-03-07 07:53:00,
2013-03-07 01:02:00,22.0,19.0,27.42,North,9,3.0,6.0,87,0.00,,,0.00,,2013-03-07 08:02:00,
2013-03-07 01:12:00,22.0,19.0,27.42,North,9,3.0,6.0,87,0.00,,,0.00,,2013-03-07 08:12:00,
2013-03-07 01:22:00,22.0,19.0,27.42,North,9,3.0,6.0,87,0.00,,,0.00,,2013-03-07 08:22:00,
2013-03-07 01:33:00,21.0,18.0,27.43,North,9,0.0,4.0,88,0.00,,,0.00,,2013-03-07 08:33:00,
2013-03-07 01:43:00,21.0,18.0,27.43,North,9,0.0,4.0,88,0.00,,,0.00,,2013-03-07 08:43:00,
2013-03-07 01:54:00,22.0,19.0,27.43,NNE,30,1.0,6.0,88,0.00,,,0.00,,2013-03-07 08:54:00,
2013-03-07 02:03:00,22.0,19.0,27.43,NE,38,2.0,6.0,88,0.00,,,0.00,,2013-03-07 09:03:00,
2013-03-07 02:13:00,22.0,19.0,27.43,NE,38,2.0,6.0,88,0.00,,,0.00,,2013-03-07 09:13:00,
2013-03-07 02:23:00,22.0,19.0,27.43,NE,38,0.0,4.0,88,0.00,,,0.00,,2013-03-07 09:23:00,
2013-03-07 02:32:00,21.0,18.0,27.43,NE,38,2.0,4.0,88,0.00,,,0.00,,2013-03-07 09:32:00,
2013-03-07 02:42:00,21.0,18.0,27.43,NE,38,2.0,4.0,88,0.00,,,0.00,,2013-03-07 09:42:00,
2013-03-07 02:53:00,21.0,18.0,27.43,NNW,343,1.0,4.0,89,0.00,,,0.00,,2013-03-07 09:53:00,
2013-03-07 03:03:00,21.0,18.0,27.42,North,355,4.0,7.0,89,0.00,,,0.00,,2013-03-07 10:03:00,
2013-03-07 03:13:00,21.0,18.0,27.42,North,355,4.0,7.0,89,0.00,,,0.00,,2013-03-07 10:13:00,
2013-03-07 03:23:00,21.0,18.0,27.43,NNE,18,3.0,7.0,88,0.00,,,0.00,,2013-03-07 10:23:00,
2013-03-07 03:33:00,21.0,18.0,27.43,NNE,18,2.0,6.0,89,0.00,,,0.00,,2013-03-07 10:33:00,
2013-03-07 03:42:00,21.0,18.0,27.43,NNE,18,2.0,6.0,89,0.00,,,0.00,,2013-03-07 10:42:00,
2013-03-07 03:53:00,21.0,18.0,27.44,NNE,18,3.0,5.0,89,0.00,,,0.00,,2013-03-07 10:53:00,
2013-03-07 04:02:00,21.0,18.0,27.44,NNE,18,4.0,8.0,89,0.00,,,0.00,,2013-03-07 11:02:00,
2013-03-07 04:12:00,21.0,18.0,27.44,NNE,18,4.0,8.0,89,0.00,,,0.00,,2013-03-07 11:12:00,
2013-03-07 04:23:00,21.0,18.0,27.43,NNE,18,5.0,7.0,89,0.00,,,0.00,,2013-03-07 11:23:00,
2013-03-07 04:33:00,21.0,18.0,27.45,NNE,18,4.0,7.0,88,0.00,,,0.00,,2013-03-07 11:33:00,
2013-03-07 04:43:00,21.0,18.0,27.45,NNE,18,4.0,7.0,88,0.00,,,0.00,,2013-03-07 11:43:00,
2013-03-07 04:54:00,21.0,18.0,27.45,NNE,18,4.0,6.0,88,0.00,,,0.00,,2013-03-07 11:54:00,
2013-03-07 05:02:00,21.0,18.0,27.46,NNE,18,4.0,7.0,88,0.00,,,0.00,,2013-03-07 12:02:00,
2013-03-07 05:12:00,21.0,18.0,27.46,NNE,18,4.0,7.0,88,0.00,,,0.00,,2013-03-07 12:12:00,
2013-03-07 05:22:00,21.0,18.0,27.48,NNE,18,0.0,2.0,89,0.00,,,0.00,,2013-03-07 12:22:00,
2013-03-07 05:33:00,20.0,17.0,27.49,NNE,18,0.0,0.0,88,0.00,,,0.00,,2013-03-07 12:33:00,
2013-03-07 05:42:00,20.0,17.0,27.49,NNE,18,0.0,0.0,88,0.00,,,0.00,,2013-03-07 12:42:00,
2013-03-07 05:53:00,20.0,17.0,27.48,NNE,18,1.0,3.0,89,0.00,,,0.00,,2013-03-07 12:53:00,
2013-03-07 06:02:00,21.0,19.0,27.51,NNE,18,0.0,0.0,90,0.00,,,0.00,,2013-03-07 13:02:00,
2013-03-07 06:12:00,21.0,19.0,27.51,NNE,18,0.0,0.0,90,0.00,,,0.00,,2013-03-07 13:12:00,
2013-03-07 06:22:00,21.0,18.0,27.50,NNE,18,0.0,0.0,89,0.00,,,0.00,,2013-03-07 13:22:00,
2013-03-07 06:42:00,21.0,19.0,27.51,NNE,18,0.0,0.0,90,0.00,,,0.00,,2013-03-07 13:42:00,
2013-03-07 06:53:00,21.0,18.0,27.51,NNE,18,0.0,0.0,89,0.00,,,0.00,,2013-03-07 13:53:00,
2013-03-07 07:02:00,21.0,18.0,27.50,NNE,18,0.0,0.0,89,0.00,,,0.00,,2013-03-07 14:02:00,
2013-03-07 07:12:00,21.0,18.0,27.50,NNE,18,0.0,0.0,89,0.00,,,0.00,,2013-03-07 14:12:00,
2013-03-07 07:22:00,21.0,18.0,27.51,NNE,18,0.0,2.0,89,0.00,,,0.00,,2013-03-07 14:22:00,
2013-03-07 07:32:00,22.0,19.0,27.51,NNE,18,0.0,4.0,89,0.00,,,0.00,,2013-03-07 14:32:00,
2013-03-07 07:42:00,22.0,19.0,27.51,NNE,18,0.0,4.0,89,0.00,,,0.00,,2013-03-07 14:42:00,
2013-03-07 07:54:00,22.0,19.0,27.52,SSW,203,5.0,7.0,89,0.00,,,0.00,,2013-03-07 14:54:00,
2013-03-07 08:02:00,23.0,20.0,27.52,SSW,203,1.0,5.0,88,0.00,,,0.00,,2013-03-07 15:02:00,
2013-03-07 08:12:00,23.0,20.0,27.52,SSW,203,1.0,5.0,88,0.00,,,0.00,,2013-03-07 15:12:00,
2013-03-07 08:22:00,23.0,20.0,27.54,SSW,196,6.0,8.0,87,0.00,,,0.00,,2013-03-07 15:22:00,
2013-03-07 08:32:00,23.0,20.0,27.54,SSW,196,6.0,8.0,87,0.00,,,0.00,,2013-03-07 15:32:00,
2013-03-07 08:42:00,23.0,20.0,27.54,SSW,196,6.0,8.0,87,0.00,,,0.00,,2013-03-07 15:42:00,
2013-03-07 08:53:00,25.0,21.0,27.55,SW,215,3.0,6.0,85,0.00,,,0.00,,2013-03-07 15:53:00,
2013-03-07 09:02:00,26.0,22.0,27.55,South,190,6.0,8.0,85,0.00,,,0.00,,2013-03-07 16:02:00,
2013-03-07 09:12:00,26.0,22.0,27.55,South,190,6.0,8.0,85,0.00,,,0.00,,2013-03-07 16:12:00,
2013-03-07 09:23:00,27.0,23.0,27.55,South,179,4.0,9.0,84,0.00,,,0.00,,2013-03-07 16:23:00,
2013-03-07 09:32:00,27.0,23.0,27.55,South,179,4.0,9.0,84,0.00,,,0.00,,2013-03-07 16:32:00,
2013-03-07 09:42:00,27.0,23.0,27.55,South,179,4.0,9.0,84,0.00,,,0.00,,2013-03-07 16:42:00,
2013-03-07 09:53:00,29.0,23.0,27.56,SSW,205,7.0,10.0,79,0.00,,,0.00,,2013-03-07 16:53:00,
2013-03-07 10:02:00,31.0,25.0,27.57,South,189,6.0,11.0,79,0.00,,,0.00,,2013-03-07 17:02:00,
2013-03-07 10:12:00,31.0,25.0,27.57,South,189,6.0,11.0,79,0.00,,,0.00,,2013-03-07 17:12:00,
2013-03-07 10:22:00,32.0,26.0,27.57,SW,236,4.0,9.0,77,0.00,,,0.00,,2013-03-07 17:22:00,
2013-03-07 10:43:00,33.0,26.0,27.57,West,269,4.0,9.0,76,0.00,,,0.00,,2013-03-07 17:43:00,
2013-03-07 10:54:00,33.0,26.0,27.58,WSW,256,2.0,8.0,76,0.00,,,0.00,,2013-03-07 17:54:00,
2013-03-07 11:03:00,33.0,27.0,27.58,West,261,4.0,9.0,77,0.00,,,0.00,,2013-03-07 18:03:00,
2013-03-07 11:12:00,33.0,27.0,27.58,West,261,4.0,9.0,77,0.00,,,0.00,,2013-03-07 18:12:00,
2013-03-07 11:22:00,34.0,28.0,27.58,WSW,246,7.0,9.0,78,0.00,,,0.00,,2013-03-07 18:22:00,
2013-03-07 11:32:00,34.0,28.0,27.59,SSW,194,4.0,7.0,77,0.00,,,0.00,,2013-03-07 18:32:00,
2013-03-07 11:42:00,34.0,28.0,27.59,SSW,194,4.0,7.0,77,0.00,,,0.00,,2013-03-07 18:42:00,
2013-03-07 11:53:00,35.0,29.0,27.60,WSW,238,7.0,12.0,78,0.00,,,0.00,,2013-03-07 18:53:00,
2013-03-07 12:03:00,36.0,29.0,27.60,WSW,246,5.0,10.0,77,0.00,,,0.00,,2013-03-07 19:03:00,
2013-03-07 12:12:00,36.0,29.0,27.60,WSW,246,5.0,10.0,77,0.00,,,0.00,,2013-03-07 19:12:00,
2013-03-07 12:23:00,37.0,30.0,27.60,WSW,254,4.0,14.0,75,0.00,,,0.00,,2013-03-07 19:23:00,
2013-03-07 12:34:00,38.0,31.0,27.60,WSW,241,8.0,13.0,75,0.00,,,0.00,,2013-03-07 19:34:00,
2013-03-07 12:53:00,38.0,30.0,27.60,West,264,5.0,11.0,74,0.00,,,0.00,,2013-03-07 19:53:00,
2013-03-07 13:02:00,39.0,31.0,27.60,WNW,288,8.0,12.0,73,0.00,,,0.00,,2013-03-07 20:02:00,
2013-03-07 13:13:00,39.0,31.0,27.60,WNW,288,8.0,12.0,73,0.00,,,0.00,,2013-03-07 20:13:00,
2013-03-07 13:22:00,39.0,31.0,27.60,WNW,284,4.0,12.0,73,0.00,,,0.00,,2013-03-07 20:22:00,
2013-03-07 13:33:00,40.0,31.0,27.60,WNW,289,6.0,14.0,71,0.00,,,0.00,,2013-03-07 20:33:00,
2013-03-07 13:42:00,40.0,31.0,27.60,WNW,289,6.0,14.0,71,0.00,,,0.00,,2013-03-07 20:42:00,
2013-03-07 13:54:00,40.0,31.0,27.60,WNW,285,5.0,16.0,71,0.00,,,0.00,,2013-03-07 20:54:00,
2013-03-07 14:02:00,40.0,31.0,27.60,West,280,4.0,12.0,70,0.00,,,0.00,,2013-03-07 21:02:00,
2013-03-07 14:12:00,40.0,31.0,27.60,West,280,4.0,12.0,70,0.00,,,0.00,,2013-03-07 21:12:00,
2013-03-07 14:22:00,40.0,31.0,27.60,WNW,293,5.0,9.0,70,0.00,,,0.00,,2013-03-07 21:22:00,
2013-03-07 14:32:00,41.0,31.0,27.60,WNW,293,8.0,11.0,68,0.00,,,0.00,,2013-03-07 21:32:00,
2013-03-07 14:42:00,41.0,31.0,27.60,WNW,293,8.0,11.0,68,0.00,,,0.00,,2013-03-07 21:42:00,
2013-03-07 14:53:00,41.0,31.0,27.60,WNW,293,8.0,11.0,68,0.00,,,0.00,,2013-03-07 21:53:00,
2013-03-07 15:01:00,41.0,31.0,27.60,WNW,293,8.0,11.0,68,0.00,,,0.00,,2013-03-07 22:01:00,
2013-03-07 15:12:00,41.0,31.0,27.60,WNW,293,8.0,11.0,68,0.00,,,0.00,,2013-03-07 22:12:00,